Location: Burla
(50.9568°N, 10.4983°E)
Time: 15:47:34
(UTC+00:00)

BREEZE-M DEB (TANK) - Pass Details

Date: 18 January 2026
Orbit: 290 x 14651 km, 49.5° (Epoch: 10 February)

Event Time Altitude Azimuth Distance (km) Brightness Sun altitude
Rises 03:22:11 0° 290° (WNW) 12,361 8.7 -35.5°
Enters shadow 03:22:18 - 290° (WNW) 12,331 8.7 -35.5°
Exits shadow 03:54:57 55° 223° (SW) 1,733 4.4 -30.4°
Maximum altitude 03:55:04 55° 220° (SW) 1,711 4.4 -30.4°
Drops below altitude 10° 03:59:58 10° 142° (SE) 2,304 5.8 -29.6°
Sets 04:01:24 0° 136° (SE) 2,870 6.5 -29.4°
